Regional Weather Roundup
Issued by NWS

Home | Current Version | Previous Version | Graphics & Text | Print | Product List | Glossary On
Versions: 1 2 3 4 5 6 7 8 9 10 11 12 13 14 15 16 17 18 19 20 21 22 23 24 25 26 27 28
000
ASUS45 KBOU 160106
RWRCO

WEATHER ROUNDUP FOR COLORADO
NATIONAL WEATHER SERVICE DENVER/BOULDER CO
700 PM MDT TUE APR 15 2014

NOTE: "FAIR" INDICATES FEW OR NO CLOUDS BELOW 12000 FEET WITH NO
SIGNIFICANT WEATHER AND/OR OBSTRUCTIONS TO VISIBILITY.

COZ001>005-013-030-031-160200-
...NORTHWEST COLORADO...

CITY           SKY/WX    TMP DP  RH WIND       PRES   REMARKS
CRAIG          MOCLDY    53  22  29 SW16      29.79F
HAYDEN         MOCLDY    52  19  28 SW17      29.83F
MEEKER         MOCLDY    53  17  24 SW15G25   29.82F
MOUNT WERNER   CLOUDY    36  10  35 SW21G29   29.93F
STEAMBOAT SPGS CLOUDY    49  15  25 SW8       29.82F
WALDEN         MOCLDY    39  19  45 SW25G31   29.83S
$$

COZ006>008-011-160200-
...WEST CENTRAL VALLEYS...

CITY           SKY/WX    TMP DP  RH WIND       PRES   REMARKS
GRAND JUNCTION CLEAR     57  21  24 NW5       29.84F
MONTROSE       MOCLDY    61  10  13 W13       29.88F
EAGLE          PTCLDY    54  18  24 SW20      29.87F
RIFLE          MOCLDY    56  22  26 W12       29.83F
DELTA          MOCLDY    63  18  17 CALM      29.85F
NUCLA            N/A     59   7  12 S16       29.94S
$$

COZ017>023-064>068-160200-
...SOUTHWEST COLORADO...

CITY           SKY/WX    TMP DP  RH WIND       PRES   REMARKS
DURANGO        MOCLDY    56  -6   8 W16G24    29.95F
CORTEZ         CLEAR     58   8  13 E5        29.93F
PAGOSA SPRINGS MOCLDY    54  -4   9 SW12G17   29.98S
TELLURIDE      CLOUDY    45   7  21 SW7       30.02S
WOLF CREEK PAS NOT AVBL
$$

COZ009-010-012-014-032>034-037-058>063-160200-
...CENTRAL COLORADO...

CITY           SKY/WX    TMP DP  RH WIND       PRES   REMARKS
ASPEN          PTCLDY    48  10  21 SW8       29.90F
BUENA VISTA    MOCLDY    49   0  13 W7G21     29.88F
COPPER MTN     PTCLDY    30   9  40 W28G37    29.98F HAZE    WCI  16
BERTHOUD PASS  FAIR      23  14  68 NW29G52   29.95F WCI   6
COTTONWOOD PAS MOCLDY    43  -4  14 NW15G33   29.92F
GUNNISON       MOCLDY    48   9  20 W10       29.97S
KREMMLING      MOCLDY    50  10  20 W17G24    29.87S
LEADVILLE      CLOUDY    39   8  27 NW6       29.95F
MONARCH PASS   MOCLDY    28   9  43 W43G54    30.11F WCI  10
SALIDA         MOCLDY    53   4  14 W14G21    29.96S
SUNLIGHT       CLOUDY    34  21  60 SW3       30.00S
WILKERSON PASS MOCLDY    34   5  29 W14G22    29.94F WCI  24
$$

COZ069>075-160200-
...SAN LUIS VALLEY/SANGRE DE CRISTO MOUNTAINS...

CITY           SKY/WX    TMP DP  RH WIND       PRES   REMARKS
ALAMOSA        PTCLDY    53  13  20 W25G35    29.88S
LA VETA PASS   PTCLDY    39  12  33 SW13G24   29.95F
SAGUACHE       MOCLDY    50   3  14 NW16G28   29.90S
$$

COZ035-036-038>040-160200-
...NORTHERN COLORADO FRONT RANGE...

CITY           SKY/WX    TMP DP  RH WIND       PRES   REMARKS
DENVER INTL AP MOCLDY    60  14  16 NW15      29.70F
DMNS CITY PARK   N/A     61   9  12 W13G18    29.70S
AURORA         MOCLDY    61  14  16 W13       29.72F
FRONT RANGE AP MOCLDY    63  19  19 NW6       29.72F
ERIE MUNI ARPT PTCLDY    62   8  12 NE3       29.69F
BOULDER MUN AP PTCLDY    61  19  20 NE6       29.69F
CENTENNIAL     PTCLDY    60  10  14 NW10      29.72F
BROOMFIELD     MOCLDY    59  12  15 W18G26    29.71F
FORT COLLINS   PTCLDY    61  19  20 SW15      29.70R
LONGMONT       PTCLDY    63  20  19 NW12      29.71S
$$

COZ041-046-047-076>085-087-088-160200-
...PIKES PEAK/PALMER DIVIDE AND SOUTHERN FOOTHILLS...

CITY           SKY/WX    TMP DP  RH WIND       PRES   REMARKS
COLO. SPRINGS  CLOUDY    61   7  11 NW15G21   29.76R
A. F. ACADEMY  MOCLDY    57   8  14 NW9       29.77F
ELLICOTT       NOT AVBL
FALCON         CLOUDY    56   9  15 W13G20    29.79F
FORT CARSON    CLOUDY    60  13  16 S10       29.74F
LIMON          PTCLDY    58  21  24 S10       29.71F
MONUMENT HILL  MOCLDY    52  14  22 W10       29.78S
TRINIDAD       CLOUDY    63  21  20 S6        29.76F
$$

COZ042>045-048>051-090-091-160200-
...NORTHEAST COLORADO...

CITY           SKY/WX    TMP DP  RH WIND       PRES   REMARKS
GREELEY ARPT   PTCLDY    59  27  29 S7        29.68F
AKRON          CLEAR     56  30  37 S13       29.69F
BURLINGTON     MOCLDY    57  19  22 S14       29.73F
WRAY           CLEAR     63  23  21 S10       29.69F
STERLING       CLEAR     61  32  33 SW9       29.66F
HOLYOKE        CLEAR     61  32  33 SW15      29.68S
FORT MORGAN    CLEAR     60  24  25 SE6       29.69F
$$

COZ086-089-092>099-160200-
...SOUTHEAST COLORADO...

CITY           SKY/WX    TMP DP  RH WIND       PRES   REMARKS
PUEBLO         MOCLDY    66  21  18 W8        29.70F
LA JUNTA       MOCLDY    65  22  19 SE8       29.69F
LAMAR          CLOUDY    64  24  21 S16       29.70F
SPRINGFIELD    NOT AVBL
$$



USA.gov is the U.S. government's official web portal to all federal, state and local government web resources and services.